CW3642 Weather Reports


Display with metric or nautical units.
time (UTC)temp
F
wind
direction
speed
MPH
gust
MPH
rain 1hr
in
rain 24hr
in
rain mn
in
humidity
%
barometer
mb
20260504043829 40 360 0.0 6.0 0.00 0.11 0.00 93 1002.3
20260504042329 41 360 0.0 6.0 0.00 0.11 0.00 92 1002.6
20260504041829 41 360 0.0 6.0 0.00 0.11 0.00 92 1002.6
20260504041329 41 360 0.0 6.0 0.00 0.11 0.00 92 1002.5
20260504040329 42 360 0.0 6.0 0.00 0.11 0.00 92 1002.8
20260504035829 42 360 0.0 6.0 0.00 0.11 0.00 91 1002.9
20260504035329 43 360 0.0 6.0 0.00 0.11 0.11 91 1002.8
20260504034829 43 360 0.0 6.0 0.00 0.11 0.11 91 1002.9
20260504034329 43 360 0.0 6.0 0.00 0.11 0.11 91 1002.9
20260504033829 44 360 0.0 6.0 0.00 0.11 0.11 90 1002.9
20260504033329 44 360 0.0 6.0 0.00 0.11 0.11 90 1002.9
20260504032829 45 360 0.0 6.0 0.00 0.11 0.11 90 1002.9
20260504032329 45 360 0.0 6.0 0.00 0.11 0.11 90 1003.1
20260504031330 46 360 0.0 6.0 0.00 0.11 0.11 90 1003.2
20260504030829 47 360 0.0 6.0 0.00 0.11 0.11 89 1003.2
20260504030329 47 360 0.0 6.0 0.00 0.11 0.11 89 1003.3
20260504025829 48 360 0.0 6.0 0.00 0.11 0.11 88 1003.3
20260504025329 48 360 0.0 6.0 0.00 0.11 0.11 88 1003.3
20260504024829 48 360 0.0 6.0 0.00 0.11 0.11 88 1003.1
20260504024329 49 360 0.0 6.0 0.00 0.11 0.11 87 1002.8
20260504023329 49 360 5.0 6.0 0.00 0.11 0.11 86 1002.5
20260504022829 49 360 4.0 6.0 0.00 0.11 0.11 86 1002.6
20260504022329 48 360 10.0 6.0 0.00 0.11 0.11 87 1002.5
20260504021829 48 360 6.0 6.0 0.00 0.11 0.11 87 1002.2
20260504021329 48 360 4.0 6.0 0.00 0.11 0.11 87 1002.3
20260504020829 49 360 0.0 18.0 0.00 0.11 0.11 87 1002.2
20260504015825 49 360 3.0 18.0 0.00 0.11 0.11 87 1002.2
20260504015325 49 360 5.0 18.0 0.00 0.11 0.11 86 1002.1
20260504014825 49 360 2.0 18.0 0.00 0.11 0.11 87 1002.1
20260504014325 49 360 6.0 18.0 0.00 0.11 0.11 86 1001.9
20260504013325 49 360 10.0 18.0 0.00 0.11 0.11 87 1002.1
20260504012825 49 360 11.0 18.0 0.00 0.11 0.11 88 1002.1
20260504012325 49 360 3.0 18.0 0.00 0.11 0.11 88 1002.0
20260504011825 48 360 2.0 18.0 0.00 0.11 0.11 89 1002.0
20260504011325 48 360 10.0 18.0 0.00 0.11 0.11 90 1001.8
20260504010825 48 360 10.0 18.0 0.00 0.11 0.11 90 1001.9
20260504010325 48 360 3.0 18.0 0.00 0.11 0.11 90 1001.8
20260504005825 48 360 3.0 18.0 0.00 0.11 0.11 91 1001.8
20260504005325 48 360 10.0 18.0 0.00 0.11 0.11 92 1001.7
20260504004825 48 360 0.0 18.0 0.00 0.11 0.11 93 1001.7
20260504004325 48 360 5.0 18.0 0.00 0.11 0.11 93 1001.9
20260504003825 48 360 1.0 18.0 0.00 0.11 0.11 93 1001.9
20260504002825 48 360 0.0 18.0 0.02 0.11 0.11 93 1001.9
20260504002325 48 360 0.0 18.0 0.05 0.11 0.11 93 1001.9
20260504001825 47 360 0.0 18.0 0.07 0.11 0.11 93 1001.9
20260504001325 47 360 0.0 18.0 0.09 0.11 0.11 93 1002.0
20260504000825 47 360 2.0 18.0 0.11 0.11 0.11 93 1002.1
20260504000325 47 360 5.0 18.0 0.11 0.11 0.11 92 1002.2
20260503235825 46 360 0.0 18.0 0.11 0.11 0.11 92 1002.4
20260503235325 46 360 3.0 18.0 0.11 0.11 0.11 91 1002.2
20260503234825 47 360 0.0 18.0 0.11 0.11 0.11 90 1002.4
20260503234325 47 360 0.0 18.0 0.11 0.11 0.11 90 1002.5
20260503233825 47 360 0.0 18.0 0.11 0.11 0.11 88 1002.6
20260503233325 48 360 0.0 18.0 0.10 0.10 0.10 86 1003.2
20260503232825 49 360 0.0 18.0 0.09 0.09 0.09 83 1003.6
20260503232325 51 360 4.0 18.0 0.06 0.06 0.06 80 1004.3
20260503231825 53 360 1.0 18.0 0.04 0.04 0.04 77 1004.3
20260503231325 55 360 0.0 18.0 0.02 0.02 0.02 77 1003.5
20260503230825 55 360 6.0 18.0 0.00 0.00 0.00 69 1002.9
20260503225825 56 360 2.0 18.0 0.00 0.00 0.00 67 1002.5
20260503223825 56 360 1.0 18.0 0.00 0.00 0.00 65 1002.2
20260503223325 57 360 10.0 18.0 0.00 0.00 0.00 65 1002.1
20260503222825 57 360 8.0 18.0 0.00 0.00 0.00 65 1001.9
20260503221825 58 360 6.0 18.0 0.00 0.00 0.00 64 1002.0
20260503221325 58 360 4.0 18.0 0.00 0.00 0.00 62 1002.0
20260503220825 59 360 14.0 18.0 0.00 0.00 0.00 60 1002.1
20260503215847 59 360 9.0 15.0 0.00 0.00 0.00 60 1002.0
20260503215347 60 360 13.0 15.0 0.00 0.00 0.00 61 1001.9
20260503214847 60 360 4.0 15.0 0.00 0.00 0.00 60 1001.9
20260503214347 61 360 11.0 15.0 0.00 0.00 0.00 59 1002.0
20260503213847 61 360 12.0 15.0 0.00 0.00 0.00 60 1002.2
20260503213347 61 360 3.0 15.0 0.00 0.00 0.00 61 1002.1
20260503212847 61 360 19.0 15.0 0.00 0.00 0.00 59 1002.2
20260503212347 61 360 9.0 15.0 0.00 0.00 0.00 60 1002.2
20260503211347 60 360 11.0 15.0 0.00 0.00 0.00 60 1002.3
20260503210847 60 360 9.0 15.0 0.00 0.00 0.00 62 1002.2
20260503205847 58 360 13.0 15.0 0.00 0.00 0.00 64 1002.6
20260503205347 57 360 11.0 15.0 0.00 0.00 0.00 66 1002.5
20260503204847 57 360 5.0 15.0 0.00 0.00 0.00 65 1002.8
20260503204347 57 360 10.0 15.0 0.00 0.00 0.00 65 1002.8
20260503203847 57 360 8.0 15.0 0.00 0.00 0.00 67 1002.9
20260503203347 56 360 6.0 15.0 0.00 0.00 0.00 67 1003.0
20260503201847 56 360 10.0 15.0 0.00 0.00 0.00 67 1003.5
20260503201348 56 360 8.0 15.0 0.00 0.00 0.00 66 1003.6
20260503200847 57 360 10.0 15.0 0.00 0.00 0.00 65 1003.7
20260503200347 57 360 2.0 15.0 0.00 0.00 0.00 65 1003.7
20260503195847 56 360 6.0 15.0 0.00 0.00 0.00 66 1003.9
20260503195347 56 360 13.0 15.0 0.00 0.00 0.00 66 1004.0
20260503194847 56 360 4.0 15.0 0.00 0.00 0.00 65 1004.1
20260503194347 57 360 5.0 15.0 0.00 0.00 0.00 64 1004.2
20260503193347 57 190 8.0 15.0 0.00 0.00 0.00 64 1004.3
20260503192847 57 360 19.0 15.0 0.00 0.00 0.00 61 1004.3
20260503192347 58 360 12.0 15.0 0.00 0.00 0.00 60 1004.6
20260503191847 58 360 14.0 15.0 0.00 0.00 0.00 60 1004.6
20260503191347 58 360 8.0 15.0 0.00 0.00 0.00 58 1004.8
20260503190847 59 360 5.0 15.0 0.00 0.00 0.00 57 1004.8
20260503190347 59 360 8.0 15.0 0.00 0.00 0.00 58 1004.7
20260503185847 59 360 13.0 15.0 0.00 0.00 0.00 57 1004.7
20260503185347 59 360 5.0 15.0 0.00 0.00 0.00 57 1004.8
20260503184847 59 360 23.0 15.0 0.00 0.00 0.00 58 1004.7
20260503183847 58 360 10.0 15.0 0.00 0.00 0.00 59 1004.8
20260503183347 58 360 8.0 15.0 0.00 0.00 0.00 60 1004.9
20260503182847 58 360 10.0 15.0 0.00 0.00 0.00 59 1005.0
20260503182347 58 360 5.0 15.0 0.00 0.00 0.00 61 1004.9
20260503181847 57 360 6.0 15.0 0.00 0.00 0.00 62 1005.0
20260503181347 56 360 23.0 15.0 0.00 0.00 0.00 66 1005.0
20260503180847 55 360 8.0 15.0 0.00 0.00 0.00 66 1005.0
20260503175832 53 360 11.0 9.0 0.00 0.00 0.00 69 1005.0
20260503174833 52 360 5.0 9.0 0.00 0.00 0.00 68 1005.2
20260503174332 53 360 10.0 9.0 0.00 0.00 0.00 67 1005.3
20260503173832 53 360 8.0 13.0 0.00 0.00 0.00 67 1005.3
20260503172846 53 360 5.0 6.0 0.00 0.00 0.00 67 1005.4
20260503172346 53 360 6.0 6.0 0.00 0.00 0.00 69 1005.4
20260503171846 52 360 4.0 6.0 0.00 0.00 0.00 69 1005.4
20260503171346 52 360 8.0 6.0 0.00 0.00 0.00 71 1005.4
20260503170846 51 360 10.0 6.0 0.00 0.00 0.00 71 1005.4
20260503170346 51 360 10.0 6.0 0.00 0.00 0.00 72 1005.5
20260503150846 47 360 5.0 6.0 0.00 0.00 0.00 81 1006.3
20260503150346 47 360 9.0 6.0 0.00 0.00 0.00 81 1006.3
20260503131318 44 360 5.0 0.0 0.00 0.00 0.00 78 1006.8
20260503130348 43 360 0.0 0.0 0.00 0.00 0.00 81 1006.8
20260503110818 39 360 3.0 0.0 0.00 0.00 0.00 79 1007.8
20260503110318 38 360 4.0 0.0 0.00 0.00 0.00 80 1007.7
20260503090325 32 360 0.0 0.0 0.00 0.00 0.00 84 1008.8
20260503080325 32 360 0.0 0.0 0.00 0.00 0.00 86 1009.4
20260503072825 30 360 0.0 0.0 0.00 0.00 0.00 87 1009.8
20260503072325 30 360 0.0 0.0 0.00 0.00 0.00 88 1009.9
20260503071825 30 360 0.0 0.0 0.00 0.00 0.00 88 1009.8
20260503071325 30 360 0.0 0.0 0.00 0.00 0.00 88 1009.9
20260503070825 30 360 0.0 0.0 0.00 0.00 0.00 88 1010.0
20260503070325 30 360 0.0 0.0 0.00 0.00 0.00 89 1010.0
20260503053833 29 360 0.0 0.0 0.00 0.00 0.00 90 1011.5
20260503052833 29 360 0.0 0.0 0.00 0.00 0.00 89 1011.6
20260503052334 29 360 0.0 0.0 0.00 0.00 0.00 88 1011.6
20260503051833 29 360 0.0 0.0 0.00 0.00 0.00 88 1011.7
20260503050833 29 360 0.0 0.0 0.00 0.00 0.00 88 1011.8
20260503050333 29 360 0.0 0.0 0.00 0.00 0.00 89 1011.9
20260503045833 29 360 0.0 0.0 0.00 0.00 0.00 89 1011.9
20260503045333 29 360 0.0 0.0 0.00 0.00 0.00 88 1012.0
20260503044833 29 360 0.0 0.0 0.00 0.00 0.00 88 1012.0
20260503044333 29 360 0.0 0.0 0.00 0.00 0.00 88 1012.1